Home   Weather   Okayama   Past weeks
Flag for Japan

Past Weather in Okayama, Japan — Yesterday and Last 2 Weeks

Now
69 °F

Mild.


Feels Like: 69 °F
Forecast: 69 / 60 °F
Wind: 5 mph from Northeast

Location: Takamatsu

Current Time: Oct 18, 2019 at 3:00:25 am

Latest Report: Oct 18, 2019 at 2:00 am


Visibility: N/A

Pressure: 30.18 "Hg

Humidity: 78%

Dew Point: 61 °F

Location of OkayamaLocation

Past Weather in Okayama — Graph

°F

Okayama Temperature Yesterday

Maximum temperature yesterday: 71 °F (at 1:00 pm)
Minimum temperature yesterday: 54 °F (at 6:00 am)
Average temperature yesterday: 65 °F

High & Low Weather Summary for the Past Weeks

 TemperatureHumidityPressure
High83 °F (Oct 4, 3:00 pm)90% (Oct 3, 1:00 pm)30.32 "Hg (Oct 3, 1:00 pm)
Low54 °F (Oct 17, 6:00 am)38% (Oct 9, 4:00 pm)29.41 "Hg (Oct 12, 1:00 pm)
Average71 °F66%29.99 "Hg
* Reported Oct 3 3:00 am — Oct 18 1:00 am, Okayama. Weather by CustomWeather, © 2019

Note: Actual official high and low records may vary slightly from our data, if they occured in-between our weather recording intervals... More about our weather records

Advertising

Okayama Weather History for the Previous 24 Hours

Scroll right to see more
 ConditionsComfort  
Time TempWeatherWind HumidityBarometerVisibility
1:00 am
Fri, Oct 18
68 °FMild.3 mph80%30.18 "HgN/A
11:00 pm
Thu, Oct 17
67 °FMild.2 mph81%30.20 "HgN/A
10:00 pm66 °FMild.3 mph82%30.19 "HgN/A
9:00 pm67 °FLight rain. Overcast.3 mph83%30.19 "Hg12 mi
8:00 pm69 °FMild.2 mph67%30.22 "HgN/A
7:00 pm69 °FMild.3 mph69%30.21 "HgN/A
6:00 pm69 °FOvercast.2 mph65%30.20 "Hg12 mi
5:00 pm70 °FMild.3 mph63%30.19 "HgN/A
4:00 pm70 °FMild.3 mph63%30.18 "HgN/A
3:00 pm70 °FOvercast.5 mph60%30.18 "Hg16 mi
2:00 pm71 °FMild.7 mph57%30.17 "HgN/A
1:00 pm71 °FMild.6 mph60%30.19 "HgN/A
12:00 pm70 °FOvercast.7 mph57%30.20 "Hg16 mi
11:00 am69 °FMild.6 mph56%30.22 "HgN/A
9:00 am66 °FOvercast.2 mph69%30.24 "Hg12 mi
8:00 am61 °FCool.1 mph79%30.23 "HgN/A
7:00 am56 °FCool.3 mph86%30.23 "HgN/A
6:00 am54 °FPassing clouds.1 mph88%30.23 "Hg16 mi
4:00 am55 °FCool.1 mph86%30.22 "HgN/A
3:00 am56 °FPassing clouds.3 mph83%30.23 "Hg12 mi
Weather by CustomWeather, © 2019

See weather overview